Preview of NWS' New Version of Forecast
This preview is not operational and should not be used for support decisions.

Regional Weather Roundup (RWR)

Issued by National Weather Service (NWS)

                            
000
ASUS44 KMEG 221210
RWRTN 
TENNESSEE HOURLY STATE WEATHER ROUNDUP
NATIONAL WEATHER SERVICE MEMPHIS TN
700 AM CDT WED MAY 22 2019

TNZ002-004-019-021-049-052-054-088>092-221300-
WEST TENNESSEE
  
CITY           SKY/WX    TMP DP  RH WIND       PRES   REMARKS
MEMPHIS INTL   CLOUDY    77  70  79 S17G23    29.88R                  
NWS MEMPHIS      N/A     75 N/A N/A MISG        N/A                   
JACKSON        PTSUNNY   73  67  81 S6        29.92R                  
DYERSBURG      CLOUDY    66  63  90 E9        29.91R                  
SOMERVILLE     PTSUNNY   73  68  83 S6        29.90R                  
COVINGTON      CLOUDY    66  64  94 VRB3      29.89R                  
UNION CITY     CLOUDY    66  64  94 CALM      29.91R                  
BOLIVAR        PTSUNNY   73  68  83 S9G15     29.92R                  
PARIS          CLOUDY    66  63  88 N3        29.93R                  
LEXINGTON      MOSUNNY   73  68  83 S10       29.93R                  
SELMER         SUNNY     72  68  88 S9G17     29.93R                  
SAVANNAH       MOSUNNY   75  70  83 S12G21    29.94R                  
$$

TNZ008-025-027-028-033-062-065-066-221300-
NORTH MIDDLE TENNESSEE
  
CITY           SKY/WX    TMP DP  RH WIND       PRES   REMARKS
NASHVILLE      CLOUDY    73  63  70 SW6       29.97R                  
DICKSON        SUNNY     72  66  83 S13       29.95R                  
PORTLAND       SUNNY     73  64  73 S7G13     29.96R                  
CLARKSVILLE    FAIR      75  64  68 SW9       29.94R                  
LEBANON        SUNNY     75  64  69 S14       29.95F                  
SMYRNA         FAIR      72  65  78 S7        29.98S                  
MURFREESBORO   SUNNY     73  64  73 S10       29.96F                  
COOKEVILLE     SUNNY     72  63  73 SE7       30.03R                  
LIVINGSTON     SUNNY     73  61  64 S6        30.04R                  
CROSSVILLE     FAIR      68  60  75 CALM      30.09R                  
ROCKWOOD       SUNNY     64  61  88 CALM      30.08R                  
$$

TNZ061-075-076-078-094-096-097-221300-
SOUTH MIDDLE TENNESSEE
  
CITY           SKY/WX    TMP DP  RH WIND       PRES   REMARKS
LAWRENCEBURG   SUNNY     70  66  88 SW5       29.99R                  
LEWISBURG      SUNNY     72  66  83 S7        29.97S                  
FAYETTEVILLE   SUNNY     72  66  83 S12       30.00S                  
TULLAHOMA      SUNNY     70  63  78 SE6       30.01F                  
WINCHESTER     SUNNY     72  63  73 SE8       30.03S                  
MCMINNVILLE    SUNNY     72  61  68 CALM      30.02S                  
COLUMBIA       SUNNY     72  72 100 S6        29.96R                  
SHELBYVILLE    SUNNY     72  64  78 S8        29.99S                  
$$

TNZ017-018-042-046-047-221300-
NORTHEAST TENNESSEE
  
CITY           SKY/WX    TMP DP  RH WIND       PRES   REMARKS
TRI CITIES     FAIR      68  58  70 CALM      30.12F                  
ELIZABETHTON   FAIR      72  57  60 VRB6G15   30.14S                  
GREENEVILLE    SUNNY     70  59  68 NE3       30.10S                  
$$

TNZ012-013-036-069-073-074-221300-
CENTRAL EAST TENNESSEE
  
CITY           SKY/WX    TMP DP  RH WIND       PRES   REMARKS
KNOXVILLE      PTSUNNY   69  61  75 CALM      30.05R                  
OAK RIDGE      FAIR      66  59  78 CALM      30.08R                  
DOWNTOWN KNOXV MOSUNNY   66  63  88 CALM      30.06R                  
GATLINBURG     SUNNY     68  61  77 CALM      30.05S                  
MORRISTOWN     SUNNY     70  61  73 CALM      30.06S                  
JACKSBORO      MOSUNNY   63  59  88 CALM      30.11R                  
$$

TNZ083-085-099-221300-
SOUTHEAST TENNESSEE
  
CITY           SKY/WX    TMP DP  RH WIND       PRES   REMARKS
CHATTANOOGA    FAIR      72  66  81 CALM      30.06R                  
DAYTON         SUNNY     68  66  94 CALM      30.05R                  
$$

SKY/WX REPORTED AS FAIR MEANS FEW OR NO CLOUDS BELOW
12 THOUSAND FEET.